Regional Weather Roundup
Issued by NWS Jackson, KY

Home | Current Version | Previous Version | Graphics & Text | Print | Product List | Glossary On
Versions: 1 2 3 4 5 6 7 8 9 10 11 12 13 14 15 16 17 18 19 20 21 22 23 24 25 26 27 28 29 30 31 32 33 34 35 36 37 38 39 40 41 42 43 44 45 46 47 48 49 50
000
ASUS43 KJKL 310110
RWRJKL

EAST KENTUCKY HOURLY WEATHER ROUNDUP
NATIONAL WEATHER SERVICE JACKSON KY
900 PM EDT TUE AUG 30 2016

NOTE: "FAIR" INDICATES FEW OR NO CLOUDS BELOW 12,000 FEET WITH
NO SIGNIFICANT WEATHER AND/OR OBSTRUCTIONS TO VISIBILITY.

* THESE REPORTS ARE NOT UNDER NWS QUALITY CONTROL AND MAY NOT
  REPORT WEATHER SUCH AS PRECIPITATION AND FOG.

KYZ079-080-083-085-087-088-110-112-115-119-120-310200
...EASTERN KENTUCKY...

CITY           SKY/WX    TMP DP  RH WIND       PRES   REMARKS
JACKSON        CLEAR     76  71  85 CALM      30.07R
LONDON         CLEAR     77  68  73 E3        30.06R
SOMERSET*      CLEAR     77  70  78 CALM      30.05R
MONTICELLO*    CLEAR    N/A N/A N/A NE9       30.06R
WILLIAMSBURG*  CLEAR     75  72  88 CALM      30.05R
MIDDLESBORO*   CLEAR     74  70  87 CALM      30.07R
HARLAN APT*      N/A     72  68  88 CALM      30.08S
PIKE CO APT*     N/A     73  71  92 S3        30.08S
BIG SANDY APT* CLEAR     79  69  71 CALM      30.05F
MOREHEAD APT*  CLEAR     79  63  57 CALM      30.07R
ASHLAND*       CLEAR     73  70  88 CALM      30.02R
$$

KYZ035-036-041-042-044-050-067-078-099-310200
...CENTRAL KENTUCKY...

CITY           SKY/WX    TMP DP  RH WIND       PRES   REMARKS
MT STERLING*   CLEAR     73  68  83 CALM      30.06S
FLEMING/MASON* CLEAR     80  66  61 NE3       30.06R
DANVILLE*      CLEAR     79  72  78 CALM      30.05R
LEXINGTON      CLEAR     82  66  58 E5        30.04R
FRANKFORT      CLEAR     77  71  82 CALM      30.02R
LOUISVILLE     PTCLDY    86  66  51 N7        30.01R
LEBANON*         N/A     82  68  61 CALM      30.03R
GLASGOW*       CLEAR     78  77  96 CALM      30.02R
BOWLING GREEN  CLEAR     82  73  74 SE3       30.00S
$$

KYZ091>093-OHZ055-061-077-WVZ005-015-034-035-042-310200
...SOUTHERN OHIO/WEST VIRGINIA...

CITY           SKY/WX    TMP DP  RH WIND       PRES   REMARKS
COVINGTON      PTCLDY    79  66  64 CALM      30.04R
COLUMBUS       CLOUDY    76  63  64 CALM      30.05R
DAYTON         CLOUDY    78  64  61 CALM      30.07R
WILMINGTON     CLEAR     73  66  78 CALM      30.06R
HUNTINGTON     CLEAR     77  66  68 CALM      30.04R
CHARLESTON     PTCLDY    76  65  68 CALM      30.05R
PINEVILLE*     CLEAR     71  67  89 MISG      30.15R
BECKLEY        CLEAR     71  66  84 CALM      30.14S
BLUEFIELD      MOCLDY    71  67  87 CALM      30.17S
LOGAN CO APT*    N/A     73  72  94 CALM      30.07S
$$

VAZ002-007-008-TNZ017-027-036-066-071-310200
...SOUTHWEST VIRGINIA/EAST TENNESSEE...

CITY           SKY/WX    TMP DP  RH WIND       PRES   REMARKS
WISE*          CLEAR     72  68  88 N5        30.16S
JONESVILLE*      N/A     73  70  88 CALM      30.08S
ABINGDON*      CLOUDY    76  67  71 CALM      30.11R
BRISTOL        PTCLDY    79  68  69 CALM      30.06S
MORRISTOWN*    CLEAR     81  70  69 NE3       30.03S
SEVIERVILLE*   MOCLDY    79  66  65 CALM      30.02R
OAK RIDGE      CLEAR     83  67  58 CALM      30.03R
CROSSVILLE     CLEAR     76  68  76 N5        30.08S
NASHVILLE      CLEAR     84  68  58 NW3       30.00R
$$

...KEY TO REMARKS...
VSB - VISIBILITY IN MILES
WCI - WIND CHILL INDEX
HX  - HEAT INDEX

$$



USA.gov is the U.S. government's official web portal to all federal, state and local government web resources and services.